Flag for Azerbaijan Weather past 2 weeks in Ganja, Azerbaijan

Now
37 °F

Passing clouds.


Feels Like: 32 °F
Forecast: 35 / 59 °F
Wind: 7 mph from West

Location: Gyanca Airport

Current Time: Feb 1, 2015 at 9:53:09 AM

Latest Report: Feb 1, 2015 at 9:00 AM


Visibility: 5 mi

Pressure: 30.07 "Hg

Humidity: 87%

Dew point: 34 °F

Location of GanjaLocation

Historic Weather in Ganja — Graph

°F

Ganja temperature yesterday

Maximum temperature yesterday: 48 °F (at 2:30 PM)
Minimum temperature yesterday: 32 °F (at 4:00 AM)
Average temperature yesterday: 41 °F

Past Weeks' High & Low Weather Summary

 TemperatureHumidityPressure
High55 °F (Jan 29, 3:00 PM)100% (Jan 17, 8:30 AM)30.48 "Hg (Jan 17, 8:30 AM)
Low28 °F (Jan 19, 12:00 AM)38% (Jan 29, 10:00 PM)29.83 "Hg (Jan 29, 3:00 PM)
Average38 °F83%30.20 "Hg
* Reported Jan 17 8:00 AM — Feb 1 8:30 AM, Ganja, Weather by CustomWeather, © 2014

Note: Actual official high and low records may vary slightly from our data, if they occured in-between our weather recording intervals... More about our weather records

Advertising

Ganja weather history for previous 24 hours

 ConditionsComfort  
Time TempWeatherWind HumidityBarometerVisibility
8:30 AM
Feb 1
34 °FPassing clouds.7 mph87%30.04 "Hg5 mi
8:00 AM37 °FPassing clouds.7 mph87%30.04 "Hg5 mi
7:30 AM36 °FPassing clouds.7 mph87%30.04 "Hg5 mi
7:00 AM36 °FPassing clouds.6 mph87%30.04 "Hg4 mi
6:30 AM34 °FPassing clouds.6 mph87%30.04 "Hg4 mi
6:00 AM36 °FPassing clouds.6 mph87%30.04 "Hg4 mi
5:30 AM37 °FPassing clouds.7 mph87%30.04 "Hg4 mi
5:00 AM36 °FFog.6 mph93%30.04 "Hg3 mi
4:30 AM37 °FFog.5 mph87%30.07 "Hg3 mi
4:00 AM36 °FFog.5 mph93%30.07 "Hg3 mi
3:30 AM37 °FFog.No wind93%30.07 "Hg3 mi
3:00 AM37 °FFog.No wind93%30.07 "Hg3 mi
2:30 AM37 °FFog.No wind93%30.09 "Hg3 mi
2:00 AM39 °FFog.No wind87%30.09 "Hg3 mi
1:30 AM39 °FFog.No wind87%30.09 "Hg3 mi
1:00 AM39 °FFog.No wind87%30.09 "Hg3 mi
12:30 AM39 °FFog.5 mph87%30.09 "Hg3 mi
12:00 AM39 °FFog.5 mph87%30.09 "Hg3 mi
11:30 PM
Jan 31
37 °FFog.5 mph87%30.09 "Hg3 mi
11:00 PM39 °FFog.5 mph87%30.09 "Hg3 mi
10:30 PM37 °FPassing clouds.1 mph87%30.09 "Hg4 mi
10:00 PM37 °FPassing clouds.No wind87%30.09 "Hg4 mi
9:30 PM37 °FPassing clouds.1 mph87%30.09 "Hg4 mi
9:00 PM37 °FPassing clouds.3 mph87%30.07 "Hg4 mi
8:30 PM41 °FPassing clouds.2 mph81%30.07 "Hg4 mi
8:00 PM43 °FPassing clouds.5 mph76%30.07 "Hg4 mi
7:30 PM43 °FPassing clouds.3 mph81%30.07 "Hg4 mi
7:00 PM43 °FScattered clouds.3 mph76%30.07 "Hg4 mi
6:30 PM45 °FScattered clouds.5 mph71%30.07 "Hg4 mi
6:00 PM46 °FScattered clouds.5 mph66%30.07 "HgN/A
5:30 PM46 °FScattered clouds.7 mph66%30.07 "HgN/A
5:00 PM48 °FPassing clouds.8 mph62%30.04 "HgN/A
4:30 PM48 °FPassing clouds.8 mph62%30.07 "HgN/A
4:00 PM48 °FPassing clouds.8 mph62%30.07 "HgN/A
3:30 PM48 °FPassing clouds.7 mph62%30.07 "HgN/A
3:00 PM48 °FPassing clouds.7 mph62%30.07 "HgN/A
2:30 PM48 °FPassing clouds.6 mph62%30.07 "HgN/A
2:00 PM46 °FScattered clouds.3 mph66%30.07 "HgN/A
1:30 PM46 °FPartly sunny.5 mph66%30.07 "Hg5 mi
1:00 PM45 °FPartly sunny.2 mph66%30.09 "Hg5 mi
12:30 PM45 °FPartly sunny.3 mph66%30.09 "Hg5 mi
12:00 PM45 °FPartly sunny.3 mph71%30.09 "Hg5 mi
11:30 AM43 °FPartly sunny.3 mph76%30.09 "Hg5 mi
11:00 AM43 °FPartly sunny.No wind76%30.09 "Hg5 mi
10:30 AM41 °FOvercast.3 mph81%30.09 "Hg5 mi
10:00 AM41 °FOvercast.3 mph81%30.09 "Hg5 mi
9:30 AM41 °FOvercast.3 mph81%30.09 "Hg5 mi
9:00 AM39 °FOvercast.6 mph87%30.09 "Hg5 mi
Weather by CustomWeather, © 2014

See weather overviewHow to use our weather pages